SITRO-AIS 8 (ANOKHIN)

Last updated on Tue Jul 01 2025 00:03:44 GMT+0000 (Coordinated Universal Time)

1 57193U 23091AD 25181.56468229 .00006967 00000+0 31310-3 0 9997 2 57193 97.5562 239.1076 0011831 252.8449 107.1491 15.21404401110802
UTC large
Height (km)
Speed (km/s)
/
Latitude / Longitude
Inclination (degrees)
Orbital Period (minutes)
Azimuth
Elevation
Range (km)
Doppler Factor

Next 0 passes for location: London (51.5072 / 0.1276)

Sorry there are no passes over London.